Probability
0 0 0 0 0 0 0 0 0 0 0 0 0 0 0 0 0 0 0 0 0 0 0 0 0 0 0 0 0 0 0 0 0 0 0 0 0 0 0 0 0 0 0 0
0 0 0 0 0 0 0 0 0 0 0 0 0 0 0 0 0 0 0 0 0 0 0 0 0 0 0 0 0 0 0 0 0 0 0 0 0 0 0 0 0 0 0 0
0 0 0 0 0 0 0 0 0 0 0 0 0 0 0 0 0 0 0 0 0 0 0 0 0 0 0 0 0 0 0 0 0 0 0 0 0 0 0 0 0 0 0 0
0 3 0 0 0 0 0 0 0 0 0 0 0 0 0 0 0 0 0 0 0 0 0 0 0 0 0 0 0 0 0 0 0 0 0 0 0 0 0 0 0 0 0 0
0 0 0 0 0 0 0 0 0 0 0 0 0 0 0 0 0 0 0 0 0 0 0 0 0 0 0 0 0 0 0 0 0 0 0 0 0 0 0 0 0 0 0 0
3 3 0 0 0 0 0 0 0 0 0 0 0 0 0 0 0 0 0 0 0 0 0 0 0 0 0 0 0 0 0 0 0 0 0 0 0 0 0 0 0 0 0 0
3 3 0 0 0 0 0 0 0 0 0 0 0 0 0 0 0 0 0 0 0 0 0 0 0 0 0 0 0 0 0 0 0 0 0 0 0 0 0 0 0 0 0 0
6 0 0 0 0 0 0 0 0 0 0 0 0 0 0 0 0 0 0 0 0 0 0 0 0 0 0 0 0 0 0 0 0 0 0 0 0 0 0 0 0 0 0 0
0 0 3 0 0 0 0 0 0 0 0 0 0 0 0 0 0 0 0 0 0 0 0 0 0 0 0 0 0 0 0 0 0 0 0 0 0 0 0 0 0 0 0 0
0 0 0 0 0 0 0 0 0 0 0 0 0 0 0 0 0 0 0 0 0 0 0 0 0 0 0 0 0 0 0 0 0 0 0 0 0 0 0 0 0 0 0 0
0 0 0 0 0 0 0 0 0 0 0 0 0 0 0 0 0 0 0 0 0 0 0 0 0 0 0 0 0 0 0 0 0 0 0 0 0 0 0 0 0 0 0 0
0 0 0 0 0 0 0 0 0 0 0 0 0 0 0 0 0 0 0 0 0 0 0 0 0 0 0 0 0 0 0 0 0 0 0 0 0 0 0 0 0 0 0 0
0 0 0 0 0 0 0 0 0 0 0 0 0 0 0 0 0 0 0 0 0 0 0 0 0 0 0 0 0 0 0 0 0 0 0 0 0 0 0 0 0 0 0 0
0 0 0 0 0 0 0 0 0 0 0 0 0 0 0 0 0 0 0 0 0 0 0 0 0 0 0 0 0 0 0 0 0 0 0 0 0 0 0 0 0 0 0 0
0 0 0 0 0 0 0 0 0 0 0 0 0 0 0 0 0 0 0 0 0 0 0 0 0 0 0 0 0 0 0 0 0 0 0 0 0 0 0 0 0 0 0 0
0 0 0 0 0 0 0 0 0 0 0 0 0 0 0 0 0 0 0 0 0 0 0 0 0 0 0 0 0 0 0 0 0 0 0 0 0 0 0 0 0 0 0 0
0 0 0 0 0 0 0 0 0 0 0 0 0 0 0 0 0 0 0 0 0 0 0 0 0 0 0 0 0 0 0 0 0 0 0 0 0 0 0 0 0 0 0 0
0 0 0 0 0 0 0 0 0 0 0 0 0 0 0 0 0 0 0 0 0 0 0 0 0 0 0 0 0 0 0 0 0 0 0 0 0 0 0 0 0 0 0 0
0 0 0 0 0 0 0 0 0 0 0 0 0 0 0 0 0 0 0 0 0 0 0 0 0 0 0 0 0 0 0 0 0 0 0 0 0 0 0 0 0 0 0 0
0 0 0 0 0 0 0 0 0 0 0 0 0 0 0 0 0 0 0 0 0 0 0 0 0 0 0 0 0 0 0 0 0 0 0 0 0 0 0 0 0 0 0 0
0 0 0 0 0 0 0 0 0 0 0 0 0 0 0 0 0 0 0 0 0 0 0 0 0 0 0 0 0 0 0 0 0 0 0 0 0 0 0 0 0 0 0 0
0 0 0 0 0 0 0 0 0 0 0 0 0 0 0 0 0 0 0 0 0 0 0 0 0 0 0 0 0 0 0 0 0 0 0 0 0 0 0 0 0 0 0 0
0 0 0 0 0 0 0 0 0 3 0 0 0 0 0 0 0 0 0 0 0 0 0 0 0 0 0 0 0 0 0 0 0 0 0 0 0 0 0 0 0 0 0 0
0 0 0 0 0 0 0 0 0 3 3 0 0 0 0 0 0 0 0 0 0 0 0 0 0 0 0 0 0 0 0 0 0 0 0 0 0 0 0 0 0 0 0 0
0 0 0 0 0 0 0 0 0 0 3 0 0 0 0 0 0 0 0 0 0 0 0 0 0 0 0 0 0 0 0 0 0 0 0 0 0 0 0 0 0 0 0 0
0 0 0 0 0 3 0 0 0 0 0 0 3 0 0 0 0 0 0 0 0 0 0 0 0 0 0 0 0 0 0 0 0 0 0 0 0 0 0 0 0 0 0 0
0 0 0 0 0 0 0 0 0 0 0 3 3 3 0 0 0 0 0 0 0 0 0 0 0 0 0 0 0 0 0 0 0 0 0 0 0 0 0 0 0 0 0 0
Height
5858 5857 5856 5854 5852 5849 5846 5844 5842 5839 5835 5831 5827 5823 5818 5812 5806 5799 5792 5785 5778 5770 5762 5754 5746 5738 5730 5723 5716 5708 5701 5693 5686 5680 5673 5666 5660 5654 5647 5640 5633 5627 5620 5614
5855 5854 5853 5852 5849 5846 5843 5840 5837 5835 5832 5827 5823 5818 5813 5808 5801 5794 5787 5779 5771 5763 5755 5747 5738 5730 5722 5715 5707 5699 5691 5683 5676 5669 5662 5654 5647 5640 5632 5625 5617 5609 5601 5594
5851 5851 5850 5849 5846 5843 5840 5837 5834 5830 5828 5823 5818 5814 5809 5803 5796 5789 5781 5773 5764 5756 5747 5739 5731 5723 5714 5706 5698 5690 5682 5674 5666 5658 5651 5643 5635 5627 5618 5610 5601 5593 5585 5577
5849 5848 5847 5847 5842 5840 5837 5833 5830 5826 5822 5818 5813 5807 5803 5798 5790 5782 5774 5766 5758 5750 5741 5733 5724 5715 5707 5698 5690 5681 5673 5664 5656 5648 5640 5632 5624 5615 5605 5596 5587 5578 5570 5562
5846 5845 5844 5842 5838 5836 5833 5829 5826 5822 5818 5814 5809 5803 5795 5791 5783 5776 5768 5760 5752 5744 5735 5727 5718 5709 5700 5691 5682 5673 5664 5656 5647 5639 5631 5622 5613 5603 5594 5584 5575 5566 5558 5550
5843 5841 5839 5838 5834 5831 5829 5824 5821 5817 5813 5809 5805 5800 5793 5785 5778 5771 5763 5755 5747 5739 5730 5722 5712 5703 5694 5684 5675 5666 5657 5648 5639 5630 5622 5613 5603 5594 5584 5574 5565 5556 5548 5540
5839 5837 5836 5832 5829 5828 5825 5821 5816 5812 5808 5804 5800 5795 5789 5781 5774 5766 5758 5750 5742 5734 5725 5716 5707 5697 5687 5678 5668 5659 5650 5641 5632 5623 5614 5605 5595 5585 5575 5566 5557 5548 5540 5532
5836 5834 5834 5827 5825 5823 5820 5816 5812 5808 5804 5800 5795 5789 5783 5776 5768 5761 5753 5745 5737 5728 5720 5710 5701 5691 5682 5672 5662 5653 5643 5634 5625 5616 5607 5597 5587 5578 5568 5559 5551 5542 5534 5526
5833 5831 5826 5822 5819 5816 5813 5810 5806 5803 5799 5794 5789 5783 5777 5770 5763 5755 5748 5740 5732 5723 5715 5705 5696 5686 5676 5666 5656 5647 5637 5628 5619 5610 5600 5591 5581 5571 5563 5554 5546 5537 5529 5522
5826 5824 5820 5816 5813 5810 5807 5804 5801 5797 5793 5788 5783 5777 5771 5764 5757 5750 5742 5735 5727 5718 5710 5701 5691 5681 5671 5661 5651 5641 5631 5622 5613 5604 5595 5585 5575 5566 5558 5550 5542 5534 5526 5519
5819 5817 5813 5811 5807 5804 5801 5798 5795 5791 5787 5782 5777 5771 5765 5758 5751 5744 5737 5729 5721 5713 5704 5695 5686 5676 5666 5656 5646 5636 5626 5617 5608 5600 5590 5581 5571 5562 5554 5546 5539 5531 5525 5518
5814 5811 5807 5805 5801 5798 5795 5792 5789 5785 5780 5775 5770 5764 5758 5752 5745 5738 5731 5723 5716 5707 5699 5690 5681 5671 5661 5651 5641 5632 5622 5613 5604 5596 5586 5577 5568 5559 5551 5544 5537 5530 5524 5518
5808 5805 5802 5799 5795 5792 5789 5785 5781 5777 5773 5769 5763 5758 5751 5745 5739 5732 5725 5717 5709 5702 5694 5685 5676 5667 5657 5647 5637 5627 5618 5610 5601 5592 5583 5574 5565 5557 5549 5542 5535 5529 5524 5518
5801 5798 5795 5793 5789 5786 5782 5779 5774 5770 5765 5761 5756 5750 5744 5738 5732 5725 5718 5711 5704 5696 5688 5680 5671 5662 5653 5643 5633 5624 5615 5606 5598 5590 5581 5572 5563 5555 5548 5541 5535 5530 5524 5520
5794 5791 5788 5785 5781 5778 5775 5771 5767 5763 5757 5752 5747 5742 5736 5730 5724 5718 5711 5705 5698 5690 5683 5675 5666 5658 5649 5640 5630 5621 5612 5604 5595 5588 5579 5571 5563 5555 5548 5541 5535 5530 5525 5521
5785 5782 5779 5776 5773 5769 5766 5762 5758 5754 5749 5743 5738 5733 5728 5722 5716 5710 5704 5698 5691 5685 5677 5669 5662 5654 5645 5636 5627 5618 5610 5601 5593 5586 5578 5570 5562 5555 5548 5541 5535 5530 5526 5522
5775 5772 5769 5766 5763 5760 5756 5752 5748 5744 5739 5734 5728 5723 5718 5713 5708 5702 5696 5690 5684 5678 5672 5665 5657 5649 5641 5633 5624 5616 5608 5599 5592 5584 5577 5570 5562 5555 5548 5542 5536 5531 5527 5523
5764 5761 5758 5754 5752 5749 5745 5742 5737 5733 5728 5724 5719 5714 5709 5704 5699 5694 5689 5683 5677 5672 5666 5659 5652 5645 5637 5630 5622 5613 5605 5598 5590 5583 5577 5570 5562 5555 5549 5543 5537 5532 5528 5524
5752 5749 5746 5742 5739 5736 5733 5730 5726 5722 5717 5713 5709 5704 5700 5695 5690 5686 5681 5676 5671 5665 5659 5653 5646 5640 5633 5626 5619 5611 5603 5596 5589 5582 5576 5570 5563 5556 5550 5544 5538 5533 5529 5525
5740 5737 5734 5730 5727 5724 5720 5717 5714 5710 5706 5702 5698 5694 5690 5685 5681 5677 5672 5667 5663 5657 5652 5646 5641 5635 5629 5622 5615 5608 5601 5594 5587 5581 5576 5570 5564 5557 5551 5545 5540 5535 5531 5527
5726 5724 5721 5717 5714 5711 5707 5704 5701 5697 5693 5690 5686 5682 5678 5675 5671 5667 5662 5658 5654 5649 5645 5640 5635 5630 5624 5618 5612 5605 5599 5592 5586 5580 5575 5570 5564 5558 5552 5547 5542 5537 5533 5529
5710 5707 5705 5702 5698 5695 5692 5689 5686 5682 5679 5676 5673 5669 5666 5662 5659 5655 5652 5649 5645 5641 5637 5633 5629 5624 5619 5613 5608 5602 5596 5590 5584 5579 5575 5570 5565 5560 5554 5549 5544 5540 5535 5531
5693 5690 5687 5684 5681 5678 5676 5673 5670 5666 5663 5660 5658 5656 5653 5650 5647 5644 5641 5638 5635 5632 5629 5625 5622 5618 5613 5609 5604 5598 5593 5587 5582 5578 5574 5570 5565 5561 5556 5551 5547 5542 5538 5533
5674 5671 5668 5665 5662 5660 5658 5656 5653 5650 5647 5645 5643 5641 5639 5637 5635 5632 5630 5628 5625 5622 5620 5617 5614 5611 5607 5603 5599 5594 5590 5585 5580 5576 5572 5569 5565 5561 5557 5553 5549 5545 5541 5537
5654 5652 5649 5646 5644 5641 5639 5637 5635 5633 5631 5630 5629 5627 5625 5624 5622 5619 5618 5617 5614 5612 5610 5608 5606 5603 5600 5597 5594 5590 5585 5581 5577 5573 5570 5567 5564 5561 5558 5555 5551 5548 5544 5541
5635 5633 5630 5628 5625 5623 5621 5619 5618 5617 5615 5614 5613 5612 5610 5609 5608 5607 5606 5605 5604 5602 5600 5599 5597 5595 5593 5591 5588 5585 5581 5577 5574 5571 5568 5565 5563 5561 5558 5556 5553 5550 5547 5544
5615 5613 5611 5609 5607 5605 5604 5603 5602 5601 5600 5599 5598 5597 5596 5595 5595 5595 5594 5594 5594 5593 5592 5591 5589 5588 5586 5584 5582 5579 5576 5573 5570 5567 5565 5563 5561 5560 5558 5556 5554 5552 5549 5547
Wind_Speed
10 11 12 13 14 16 16 16 17 19 22 26 27 28 30 31 33 35 36 38 39 40 41 41 42 42 43 43 43 43 43 44 43 43 43 43 44 45 46 48 49 49 50 51
9 9 12 14 16 17 18 18 19 20 23 26 28 29 30 31 33 35 36 38 39 41 42 42 43 43 43 44 44 44 44 44 44 43 43 44 45 46 47 48 48 49 49 48
8 8 10 15 16 19 21 20 22 23 25 26 27 29 30 31 34 35 37 39 40 41 42 43 44 44 44 45 45 45 45 45 44 44 44 44 45 46 47 48 47 47 46 44
9 8 10 14 18 20 21 21 22 23 25 26 28 31 32 33 36 37 39 40 41 42 43 44 44 45 46 46 47 47 46 45 44 44 44 44 46 47 47 47 45 44 42 41
12 10 10 16 22 20 21 22 20 21 23 25 28 32 36 36 38 40 41 41 42 43 43 44 44 45 46 47 48 47 46 45 45 44 44 44 46 46 46 45 43 41 39 38
16 15 13 15 19 21 22 24 22 23 24 26 28 30 34 37 39 39 40 41 41 42 43 44 45 46 47 48 48 47 46 45 44 43 44 44 45 45 44 42 41 39 37 36
21 19 17 21 21 21 23 24 24 25 26 27 29 31 34 36 38 39 40 41 42 43 45 46 46 47 48 48 48 47 46 45 43 43 43 44 44 43 42 41 39 37 35 34
22 20 21 26 25 24 23 23 24 25 26 28 30 33 35 38 40 40 41 42 42 43 45 47 48 48 49 49 48 47 46 44 43 42 43 44 43 41 40 39 37 36 33 30
21 22 26 27 26 25 24 24 25 26 27 29 32 34 36 38 40 40 41 42 42 43 45 47 48 49 49 49 48 47 45 43 42 42 42 43 41 39 38 37 36 34 31 27
22 21 24 26 26 26 26 26 27 27 29 31 33 35 37 38 40 40 41 41 42 43 45 47 48 49 50 49 48 46 45 43 42 41 41 42 40 38 37 35 34 32 29 24
24 23 24 24 26 27 28 28 28 29 31 32 34 36 37 39 40 41 41 42 43 44 45 47 48 49 50 50 48 46 44 42 41 41 41 41 39 37 35 34 32 30 26 22
24 24 26 26 27 28 29 29 29 31 32 34 35 37 39 40 41 41 41 42 43 44 46 47 48 49 50 50 48 46 44 42 40 40 40 40 38 36 34 33 30 28 25 20
26 25 26 26 27 28 30 31 32 33 34 35 37 38 40 41 41 41 42 43 44 45 46 47 48 48 49 49 48 46 43 41 39 39 39 39 36 34 32 30 28 26 23 19
27 27 26 26 27 29 30 32 34 36 37 38 39 40 41 42 42 42 42 43 45 45 46 47 47 48 48 48 47 45 43 40 39 38 38 37 35 33 31 28 26 23 21 17
28 29 29 30 30 31 32 34 36 38 40 41 42 42 43 43 43 43 43 43 44 45 46 46 47 47 47 47 46 44 42 39 37 37 37 35 33 31 29 27 25 22 19 15
32 32 34 35 36 36 37 38 40 41 43 44 44 44 45 45 45 44 44 44 45 45 46 45 45 45 45 45 44 42 40 38 36 35 35 34 33 30 28 26 24 21 17 14
37 38 39 40 40 41 42 43 44 45 45 46 47 47 46 46 46 45 45 45 45 45 45 44 44 43 43 43 42 41 39 37 35 34 34 33 32 30 27 25 23 21 17 14
40 42 43 44 44 44 45 45 46 47 48 47 48 48 47 47 46 45 45 45 45 45 44 43 42 41 41 41 41 39 38 36 34 32 32 32 31 29 27 25 22 20 17 14
43 45 46 47 48 48 48 48 47 48 49 49 49 49 48 47 47 46 45 44 44 44 42 41 40 39 39 39 39 38 36 34 33 31 30 30 29 27 26 25 23 20 17 14
45 46 47 49 50 51 51 51 51 51 51 51 50 50 49 48 47 46 46 45 44 42 40 39 37 37 37 37 36 36 35 33 31 29 28 28 27 26 25 24 22 20 17 15
50 50 50 51 52 53 53 53 52 53 53 52 52 50 49 48 47 46 46 45 42 39 38 36 35 34 34 34 34 34 33 31 29 27 26 25 25 25 24 22 20 19 18 16
55 55 55 56 56 56 56 55 55 55 54 54 53 51 49 48 47 46 44 42 39 37 36 35 33 32 32 32 32 32 31 29 27 25 24 23 23 22 22 21 19 19 18 17
59 60 60 61 61 60 59 57 56 56 56 55 53 51 49 47 46 45 42 40 39 38 36 33 31 30 29 29 29 29 29 27 25 23 21 20 20 20 19 19 18 18 19 18
62 63 64 64 63 62 60 58 57 56 55 54 52 50 48 46 45 44 42 40 40 38 36 34 31 29 27 27 27 27 27 25 23 21 20 18 17 17 16 16 16 17 18 18
64 64 64 63 62 61 59 58 57 56 54 53 51 49 47 45 44 43 42 41 39 38 36 33 29 27 25 24 24 25 25 23 22 20 18 16 15 14 14 13 13 14 15 16
63 62 61 60 59 58 57 56 55 53 52 51 49 47 45 43 42 42 42 41 38 36 33 31 27 24 23 23 23 23 23 22 20 19 16 14 12 11 11 11 10 11 12 12
62 60 59 57 56 54 53 51 49 47 46 46 45 43 41 40 40 40 41 39 36 33 31 29 26 22 21 21 22 22 21 21 19 17 15 13 11 9 8 8 8 8 9 9
Wind_Direction
291 291 296 302 304 305 308 309 309 308 310 311 320 322 325 328 329 331 332 332 331 331 330 330 329 327 326 326 324 323 321 319 316 314 312 310 309 308 307 305 303 300 297 293
291 296 297 308 311 310 312 312 313 314 313 316 322 324 327 330 331 332 333 333 333 333 333 333 331 330 329 328 327 325 323 321 319 317 315 314 313 312 311 309 307 304 302 298
293 292 304 308 304 307 311 313 314 315 316 320 322 324 329 332 331 333 335 336 337 337 337 336 334 333 332 331 330 328 326 324 321 320 319 318 317 316 315 314 311 309 306 302
307 307 313 306 303 310 311 311 314 316 319 323 327 328 332 334 334 336 338 340 340 339 339 338 337 335 334 333 332 330 328 326 324 323 322 321 321 320 319 318 316 313 311 306
315 311 304 298 303 311 313 313 317 318 320 325 330 330 332 338 338 339 340 341 340 340 340 340 339 338 336 336 334 332 330 328 326 325 325 325 325 324 323 322 320 318 315 311
316 315 311 303 298 314 315 314 323 321 325 328 330 332 334 337 338 338 339 339 340 340 341 341 341 340 339 337 336 334 331 330 329 328 328 328 328 328 327 326 324 322 319 316
315 316 311 297 305 309 309 313 318 320 322 325 328 331 334 336 337 337 338 339 340 340 341 342 342 341 340 339 337 335 333 332 331 330 331 331 331 330 331 330 328 326 323 321
299 299 289 293 300 302 304 307 311 314 317 321 325 329 332 335 336 337 338 339 339 340 341 341 342 342 341 340 338 337 336 334 333 333 333 333 333 333 333 333 333 331 328 325
295 291 290 294 298 299 301 305 309 312 315 319 323 327 330 333 335 335 336 338 339 340 340 341 341 341 342 341 340 339 337 336 336 336 335 336 336 335 336 336 335 335 334 331
304 297 291 293 294 297 300 304 307 310 313 317 321 325 328 330 332 333 334 336 338 339 340 340 341 341 342 342 341 340 339 338 338 338 338 338 338 338 338 338 338 338 339 337
306 304 299 297 296 297 299 302 305 309 312 316 320 323 325 328 330 331 332 333 335 337 339 340 341 341 342 342 343 342 341 340 340 340 340 341 341 341 340 340 341 342 343 343
302 302 301 301 299 300 301 304 306 309 312 315 318 321 323 325 328 330 330 331 332 335 337 339 340 341 342 342 343 343 342 341 342 343 343 343 343 343 342 342 344 345 347 347
301 302 302 303 302 302 304 306 308 309 311 314 317 319 321 323 325 327 328 330 331 333 334 336 338 340 341 342 343 343 343 343 343 344 345 346 346 346 345 345 346 348 350 351
300 301 302 302 300 301 302 303 305 307 310 312 315 317 319 321 324 325 326 328 330 331 333 334 336 338 340 342 343 344 344 344 345 346 347 348 349 349 349 347 349 351 354 357
297 297 298 299 299 300 299 300 302 305 308 311 313 316 318 320 321 323 324 326 328 330 331 333 335 336 338 341 342 344 344 345 345 347 349 351 351 351 351 350 350 352 354 357
293 294 295 296 297 298 299 300 302 304 306 309 311 314 316 317 318 319 321 323 326 329 330 332 333 335 337 340 342 343 344 345 346 348 349 352 353 352 352 352 351 352 353 354
291 292 292 293 294 296 298 300 301 303 304 307 309 311 313 314 315 316 318 320 323 326 328 330 331 332 335 338 341 343 344 345 346 347 349 352 354 355 355 355 354 353 353 354
290 290 290 292 293 295 296 298 299 300 302 304 306 307 309 310 311 313 315 316 319 322 325 328 329 330 333 337 340 342 344 345 346 348 349 352 355 356 358 358 358 356 354 355
288 289 289 291 293 294 295 296 296 297 299 300 302 303 305 306 307 309 310 312 315 318 321 325 327 328 331 335 338 341 343 345 346 348 349 352 356 358 359 360 0 1 358 355
285 285 286 288 289 291 292 292 293 293 294 295 296 298 299 301 303 304 306 308 312 315 318 322 324 326 329 333 337 340 342 344 345 347 349 352 356 357 359 0 2 3 2 360
285 285 285 286 287 287 288 288 289 289 290 291 292 293 294 296 297 299 302 304 307 311 315 319 319 321 325 330 335 339 341 343 344 346 348 351 355 358 0 2 4 6 5 3
284 285 286 286 286 286 287 287 287 288 288 288 290 291 292 292 293 294 296 299 302 306 311 313 314 317 322 327 331 336 339 341 343 344 346 349 354 359 2 4 6 7 7 5
284 284 284 284 285 286 286 287 287 287 287 288 289 290 290 290 291 292 292 295 299 303 305 307 310 313 318 323 328 332 336 338 340 341 343 346 351 356 1 5 8 11 13 12
282 282 283 284 285 286 286 286 286 286 287 288 289 290 290 289 289 288 289 291 295 298 300 301 303 307 312 317 323 328 333 335 336 338 339 341 345 351 358 4 8 12 15 18
281 283 284 285 285 285 286 286 286 286 286 286 288 289 288 286 284 284 287 289 292 295 296 299 298 300 307 312 318 323 328 331 332 334 334 336 339 346 353 359 4 10 15 21
282 283 283 283 284 284 285 285 285 286 286 287 287 287 285 283 282 281 284 288 290 292 294 296 294 296 302 307 312 318 323 326 327 328 329 328 331 337 346 355 2 7 13 19
284 284 284 284 284 285 285 286 286 287 286 286 286 287 285 282 281 281 281 283 285 288 292 292 290 293 299 305 311 315 319 321 322 321 322 319 318 322 333 345 359 11 19 21